Flag for Germany Weather past 2 weeks in Fürstenwalde/Spree, Brandenburg, Germany

Now
83 °F

Partly sunny.


Feels Like: 82 °F
Forecast: 66 / 84 °F
Wind: 3 mph from East

Location: Lindenberg

Current Time: Jul 22, 2014 at 5:56:34 PM

Latest Report: Jul 22, 2014 at 5:00 PM


Visibility: 22 mi

Pressure: 29.96 "Hg

Humidity: 35%

Dew point: 53 °F

Location of Fürstenwalde/SpreeLocation

Historic Weather in Fürstenwalde/Spree — Graph

°F

Fürstenwalde/Spree temperature yesterday

Maximum temperature yesterday: 86 °F (at 3:00 PM)
Minimum temperature yesterday: 67 °F (at 6:00 AM)
Average temperature yesterday: 77 °F

Past Weeks' High & Low Weather Summary

 TemperatureHumidityPressure
High93 °F (Jul 20, 4:00 PM)99% (Jul 10, 5:00 AM)30.16 "Hg (Jul 10, 5:00 AM)
Low53 °F (Jul 13, 6:00 AM)25% (Jul 20, 5:00 PM)29.60 "Hg (Jul 8, 6:00 PM)
Average71 °F68%29.90 "Hg
* Reported Jul 7 6:00 PM — Jul 22 5:00 PM, Fürstenwalde/Spree, Weather by CustomWeather, © 2014

Note: Actual official high and low records may vary slightly from our data, if they occured in-between our weather recording intervals... More about our weather records

Advertising

Fürstenwalde/Spree weather history for previous 24 hours

 ConditionsComfort  
Time TempWeatherWind HumidityBarometerVisibility
5:00 PM
Jul 22
83 °FPartly sunny.3 mph35%29.96 "Hg22 mi
4:00 PM82 °FPartly sunny.5 mph37%29.97 "Hg19 mi
3:00 PM83 °FPartly sunny.5 mph36%29.97 "Hg19 mi
2:00 PM83 °FPartly sunny.3 mph36%29.97 "Hg19 mi
1:00 PM82 °FScattered clouds.5 mph41%29.98 "Hg19 mi
12:00 PM80 °FScattered clouds.6 mph43%29.98 "Hg19 mi
10:00 AM75 °FPassing clouds.3 mph59%29.98 "Hg16 mi
9:00 AM73 °FPassing clouds.3 mph63%29.97 "Hg16 mi
8:00 AM69 °FPassing clouds.5 mph70%29.96 "Hg16 mi
7:00 AM66 °FScattered clouds.5 mph77%29.95 "Hg16 mi
6:00 AM64 °FScattered clouds.5 mph80%29.94 "Hg12 mi
4:00 AM66 °FClear.3 mph74%29.91 "Hg25 mi
3:00 AM68 °FClear.3 mph70%29.91 "Hg12 mi
2:00 AM69 °FClear.5 mph69%29.90 "Hg12 mi
1:00 AM70 °FClear.3 mph70%29.89 "Hg12 mi
12:00 AM71 °FClear.3 mph69%29.88 "Hg12 mi
10:00 PM
Jul 21
74 °FPassing clouds.2 mph51%29.86 "Hg12 mi
9:00 PM77 °FPartly sunny.2 mph51%29.85 "Hg12 mi
8:00 PM80 °FOvercast.2 mph49%29.83 "Hg12 mi
7:00 PM82 °FOvercast.2 mph44%29.82 "Hg12 mi
6:00 PM83 °FOvercast.3 mph42%29.81 "Hg19 mi
5:00 PM84 °FOvercast.3 mph45%29.80 "Hg19 mi
Weather by CustomWeather, © 2014

See weather overviewHow to use our weather pages